Weather History for Fort Worth NAS, TX

Change the Weather History Date:

Friday, July 19, 2013

  Actual Average Record
Temperature  
Mean Temperature 88 °F -  
Max Temperature 99 °F 95 °F 102 °F (1998)
Min Temperature 77 °F 75 °F 70 °F (2014)
Cooling Degree Days 22    
Growing Degree Days 38 (Base 50)    
Moisture  
Dew Point 67 °F    
Average Humidity 55    
Maximum Humidity 79    
Minimum Humidity 30    
Precipitation  
Precipitation 0.00 in - - ()
Sea Level Pressure  
Sea Level Pressure 29.99 in    
Wind  
Wind Speed 4 mph (South)    
Max Wind Speed 15 mph    
Max Gust Speed 20 mph    
Visibility 10 miles    
Events      
Averages and records for this station are not official NWS values.
T = Trace of Precipitation, MM = Missing Value Source: NWS Daily Summary

Daily Weather History Graph

Daily Weather History Graph

Search for Another Location

Airport:

Trip Planner

Search our weather history database for the weather conditions in past years. The results will help you decide how hot, cold, wet, or windy it might be!

Date:

Astronomy

Jul. 19, 2013 Rise Set
Actual Time 6:35 AM CDT 8:36 PM CDT
Civil Twilight 6:07 AM CDT 9:04 PM CDT
Nautical Twilight 5:33 AM CDT 9:37 PM CDT
Astronomical Twilight 4:57 AM CDT 10:13 PM CDT
Moon 5:40 PM CDT (7/19) 3:16 AM CDT (7/19)
Length of Visible Light 14h 56m
Length of Day
14h 01m
Waxing Gibbous, 87% of the Moon is Illuminated
Jul 19
Waxing Gibbous
Jul 22
Full
Jul 29
Last Quarter
Aug 6
New
Aug 14
First Quarter

Hourly Weather History & Observations

Time (CDT) Temp. Heat Index Dew Point Humidity Pressure Visibility Wind Dir Wind Speed Gust Speed Precip Events Conditions
12:52 AM 81.0 °F 85.8 °F 73.0 °F 77% 30.04 in 10.0 mi Calm Calm - N/A   Clear
1:52 AM 80.1 °F 84.2 °F 73.0 °F 79% 30.02 in 10.0 mi Calm Calm - N/A   Clear
2:52 AM 79.0 °F - 72.0 °F 79% 30.02 in 10.0 mi Calm Calm - N/A   Clear
3:52 AM 79.0 °F - 72.0 °F 79% 30.01 in 10.0 mi Calm Calm - N/A   Clear
4:52 AM 78.1 °F - 71.1 °F 79% 30.03 in 10.0 mi North 3.5 mph - N/A   Clear
5:52 AM 78.1 °F - 71.1 °F 79% 30.03 in 10.0 mi Calm Calm - N/A   Clear
6:52 AM 77.0 °F - 70.0 °F 79% 30.04 in 10.0 mi Variable 3.5 mph - N/A   Scattered Clouds
7:52 AM 80.1 °F 83.8 °F 72.0 °F 76% 30.04 in 9.0 mi Calm Calm - N/A   Partly Cloudy
8:52 AM 82.0 °F 85.9 °F 70.0 °F 67% 30.05 in 10.0 mi Calm Calm - N/A   Partly Cloudy
9:52 AM 87.1 °F 90.6 °F 68.0 °F 53% 30.05 in 10.0 mi WSW 4.6 mph - N/A   Partly Cloudy
10:52 AM 91.9 °F 94.1 °F 64.9 °F 41% 30.04 in 10.0 mi SW 9.2 mph - N/A   Partly Cloudy
11:52 AM 93.9 °F 95.6 °F 64.0 °F 37% 30.03 in 10.0 mi SW 9.2 mph - N/A   Clear
12:52 PM 95.0 °F 97.4 °F 64.9 °F 37% 30.01 in 10.0 mi WSW 8.1 mph - N/A   Scattered Clouds
1:52 PM 93.0 °F 94.2 °F 63.0 °F 37% 30.00 in 10.0 mi Calm Calm - N/A   Partly Cloudy
2:52 PM 93.9 °F 94.8 °F 62.1 °F 35% 29.98 in 10.0 mi WSW 5.8 mph - N/A   Scattered Clouds
3:52 PM 98.1 °F 99.1 °F 62.1 °F 30% 29.95 in 10.0 mi South 10.4 mph 19.6 mph N/A   Scattered Clouds
4:52 PM 95.0 °F 97.9 °F 66.0 °F 38% 29.94 in 10.0 mi SE 13.8 mph - N/A   Mostly Cloudy
5:52 PM 93.0 °F 96.4 °F 66.9 °F 42% 29.92 in 10.0 mi SE 15.0 mph - N/A   Scattered Clouds
6:52 PM 91.9 °F 94.1 °F 64.9 °F 41% 29.91 in 10.0 mi SSE 9.2 mph - N/A   Mostly Cloudy
7:52 PM 91.0 °F 92.6 °F 64.0 °F 41% 29.92 in 10.0 mi SE 10.4 mph - N/A   Mostly Cloudy
8:52 PM 89.1 °F 91.0 °F 64.9 °F 45% 29.94 in 10.0 mi SSE 6.9 mph - N/A   Scattered Clouds
9:52 PM 87.1 °F 88.3 °F 64.0 °F 46% 29.94 in 10.0 mi SSE 11.5 mph - N/A   Scattered Clouds
10:52 PM 84.9 °F 85.9 °F 63.0 °F 48% 29.97 in 10.0 mi SE 9.2 mph - N/A   Clear
11:52 PM 82.9 °F 84.4 °F 64.0 °F 53% 29.98 in 10.0 mi Variable 5.8 mph - N/A   Mostly Cloudy